User: anonymous   Login
Location: Mohawk View
(42.7837°N, 73.7885°W)
Time: 00:23:16
(UTC+00:00)
Language:

Cosmos 2219 Rocket - Orbit

View from above orbital plane
View from above orbital plane
View from above satellite
View from above satellite

Ground track
Ground track

The orbit data is extracted from the following two-line orbital elements,

1 22220U 92076B   21262.58761038  .00000156  00000-0  10248-3 0  9993
2 22220  71.0027  25.0676 0010969  56.8037 314.2702 14.16475850490695
Epoch (UTC): 19 September 2021 14:06:09
Eccentricity: 0.0010969
inclination: 71.0027°
perigee height: 829 km
apogee height: 845 km
right ascension of ascending node: 25.0676°
argument of perigee: 56.8037°
revolutions per day: 14.16475850
mean anomaly at epoch: 314.2702°
orbit number at epoch: 49069

The dashed part of the orbit path shows where the satellite is in the earth's shadow,  

DLR